Doha, Qatar

3:42 AM AST on January 19, 2017 (GMT +0300)
Doha

Weather History for OTBD - October, 2012

Change the Weather History Date:

Tuesday, October 23, 2012

  Actual Average Record
Temperature  
Mean Temperature 88 °F -  
Max Temperature 93 °F 87 °F 100 °F (2006)
Min Temperature 83 °F 69 °F 64 °F (1998)
Cooling Degree Days 23    
Growing Degree Days 38 (Base 50)    
Moisture  
Dew Point 72 °F    
Average Humidity 59    
Maximum Humidity 70    
Minimum Humidity 43    
Precipitation  
Precipitation 0.00 in 0.00 in - ()
Sea Level Pressure  
Sea Level Pressure 29.97 in    
Wind  
Wind Speed 5 mph ()    
Max Wind Speed 12 mph    
Max Gust Speed -    
Visibility 6.7 miles    
Events      
Averages and records for this station are not official NWS values.
T = Trace of Precipitation, MM = Missing Value Source: Averaged Metar Reports

Daily Weather History Graph

Daily Weather History Graph

Search for Another Location

Airport or City:

Trip Planner

Search our weather history database for the weather conditions in past years. The results will help you decide how hot, cold, wet, or windy it might be!

Date:

Astronomy

Oct. 23, 2012 Rise Set
Actual Time 5:36 AM AST 4:59 PM AST
Civil Twilight 5:12 AM AST 5:22 PM AST
Nautical Twilight 4:46 AM AST 5:49 PM AST
Astronomical Twilight 4:19 AM AST 6:16 PM AST
Moon 12:55 PM AST (10/23) No Moon Set
Length of Visible Light 12h 09m
Length of Day
11h 23m
Waxing Gibbous, 63% of the Moon is Illuminated
Oct 23
Waxing Gibbous
Oct 29
Full
Nov 7
Last Quarter
Nov 14
New
Nov 20
First Quarter

Hourly Weather History & Observations

Time (AST) Temp. Heat Index Dew Point Humidity Pressure Visibility Wind Dir Wind Speed Gust Speed Precip Events Conditions
12:00 AM 86.0 °F 91.8 °F 71.6 °F 62% 29.95 in - NE 4.6 mph - N/A   Clear
12:30 AM 86.0 °F 91.8 °F 71.6 °F 62% 29.95 in - NE 4.6 mph - N/A   Clear
1:00 AM 86.0 °F 91.8 °F 71.6 °F 62% 29.95 in - NE 3.5 mph - N/A   Clear
1:30 AM 84.2 °F 89.6 °F 71.6 °F 66% 29.92 in - NE 3.5 mph - N/A   Clear
2:00 AM 86.0 °F 91.8 °F 71.6 °F 62% 29.95 in - NNE 3.5 mph - N/A   Clear
2:30 AM 86.0 °F 93.4 °F 73.4 °F 66% 29.95 in - NNE 3.5 mph - N/A   Clear
3:00 AM 85 °F - 74 °F 62% 29.95 in 9 mi ENE 3.5 mph - -   Clear
3:00 AM 86.0 °F 93.4 °F 73.4 °F 66% 29.95 in - ENE 3.5 mph - N/A   Clear
3:30 AM 86.0 °F 93.4 °F 73.4 °F 66% 29.95 in - Variable 2.3 mph - N/A   Clear
4:00 AM 84.2 °F 90.9 °F 73.4 °F 70% 29.95 in - Variable 2.3 mph - N/A   Clear
4:30 AM 84.2 °F 90.9 °F 73.4 °F 70% 29.95 in - Variable 2.3 mph - N/A   Clear
5:00 AM 84.2 °F 90.9 °F 73.4 °F 70% 29.95 in - NE 3.5 mph - N/A   Clear
5:30 AM 84.2 °F 90.9 °F 73.4 °F 70% 29.98 in - East 3.5 mph - N/A   Clear
6:00 AM 84.2 °F 90.9 °F 73.4 °F 70% 29.98 in - East 4.6 mph - N/A   Clear
6:30 AM 86.0 °F 93.4 °F 73.4 °F 66% 29.98 in - East 4.6 mph - N/A   Clear
7:00 AM 86.0 °F 93.4 °F 73.4 °F 66% 29.98 in - ESE 3.5 mph - N/A   Clear
7:30 AM 87.8 °F 93.8 °F 71.6 °F 58% 30.01 in - East 4.6 mph - N/A   Clear
8:00 AM 89.6 °F 94.7 °F 69.8 °F 52% 30.01 in - East 6.9 mph - N/A   Clear
8:30 AM 89.6 °F 98.2 °F 73.4 °F 59% 30.01 in - East 8.1 mph - N/A   Clear
9:00 AM 91 °F - 71 °F 43% 30.03 in 10 mi East 9.2 mph - -   Scattered Clouds
9:00 AM 91.4 °F 98.4 °F 71.6 °F 52% 30.01 in 6.2 mi East 9.2 mph - N/A   Partly Cloudy
9:30 AM 91.4 °F 98.4 °F 71.6 °F 52% 30.01 in 6.2 mi East 10.4 mph - N/A   Scattered Clouds
10:00 AM 91.4 °F 98.4 °F 71.6 °F 52% 30.01 in 6.2 mi East 10.4 mph - N/A   Scattered Clouds
10:30 AM 91.4 °F 100.1 °F 73.4 °F 55% 30.01 in 6.2 mi East 10.4 mph - N/A   Scattered Clouds
11:00 AM 91.4 °F 100.1 °F 73.4 °F 55% 30.01 in 6.2 mi ESE 11.5 mph - N/A   Scattered Clouds
11:30 AM 93.2 °F 100.5 °F 71.6 °F 49% 29.98 in 6.2 mi ESE 10.4 mph - N/A   Scattered Clouds
12:00 PM 91.4 °F 100.1 °F 73.4 °F 55% 29.98 in 6.2 mi East 10.4 mph - N/A   Scattered Clouds
12:30 PM 93.2 °F 98.8 °F 69.8 °F 46% 29.98 in 6.2 mi ESE 9.2 mph - N/A   Partly Cloudy
1:00 PM 91.4 °F 98.4 °F 71.6 °F 52% 29.98 in - East 10.4 mph - N/A   Clear
1:30 PM 93.2 °F 98.8 °F 69.8 °F 46% 29.95 in - East 9.2 mph - N/A   Clear
2:00 PM 91.4 °F 96.8 °F 69.8 °F 49% 29.95 in 6.2 mi East 9.2 mph - N/A   Scattered Clouds
2:30 PM 91.4 °F 98.4 °F 71.6 °F 52% 29.95 in 6.2 mi East 9.2 mph - N/A   Scattered Clouds
3:00 PM 91 °F - 71 °F 43% 29.96 in 9 mi East 9.2 mph - -   Scattered Clouds
3:00 PM 91.4 °F 98.4 °F 71.6 °F 52% 29.95 in 6.2 mi East 9.2 mph - N/A   Scattered Clouds
3:30 PM 91.4 °F 98.4 °F 71.6 °F 52% 29.95 in 6.2 mi East 8.1 mph - N/A   Scattered Clouds
4:00 PM 89.6 °F 96.2 °F 71.6 °F 55% 29.95 in 6.2 mi East 8.1 mph - N/A   Scattered Clouds
4:30 PM 89.6 °F 96.2 °F 71.6 °F 55% 29.95 in 6.2 mi East 6.9 mph - N/A   Scattered Clouds
5:00 PM 87.8 °F 95.6 °F 73.4 °F 62% 29.95 in 6.2 mi East 8.1 mph - N/A   Scattered Clouds
5:30 PM 87.8 °F 95.6 °F 73.4 °F 62% 29.95 in 6.2 mi East 4.6 mph - N/A   Scattered Clouds
6:30 PM 87.8 °F 95.6 °F 73.4 °F 62% 29.98 in - NE 3.5 mph - N/A   Clear
7:00 PM 87.8 °F 95.6 °F 73.4 °F 62% 29.98 in - NE 3.5 mph - N/A   Clear
7:30 PM 86.0 °F 93.4 °F 73.4 °F 66% 29.98 in - ENE 3.5 mph - N/A   Clear
8:00 PM 86.0 °F 91.8 °F 71.6 °F 62% 29.98 in - NE 3.5 mph - N/A   Clear
8:30 PM 86.0 °F 91.8 °F 71.6 °F 62% 29.98 in - NE 3.5 mph - N/A   Clear
9:00 PM 86 °F - 72 °F 55% 29.99 in 7 mi NE 3.5 mph - -  
9:00 PM 86.0 °F 91.8 °F 71.6 °F 62% 29.98 in - NE 3.5 mph - N/A   Clear
9:30 PM 84.2 °F 89.6 °F 71.6 °F 66% 29.98 in - Variable 2.3 mph - N/A   Clear
10:00 PM 84.2 °F 88.4 °F 69.8 °F 62% 29.98 in - NE 3.5 mph - N/A   Clear
10:30 PM 84.2 °F 89.6 °F 71.6 °F 66% 29.98 in - NNE 4.6 mph - N/A   Clear
11:00 PM 84.2 °F 89.6 °F 71.6 °F 66% 29.98 in - North 6.9 mph - N/A   Clear
11:30 PM 84.2 °F 89.6 °F 71.6 °F 66% 29.95 in - NNE 5.8 mph - N/A   Clear